Location: Binningen
(47.7924°N, 8.7261°E)
Time: 08:36:34
(UTC+00:00)

Cosmos 1066 Rocket - Pass Details

Date: 17 May 2021
Orbit: 798 x 895 km, 81.2° (Epoch: 20 June)

Event Time Altitude Azimuth Distance (km) Brightness Sun altitude
Exits shadow 23:09:04 47° 205° (SSW) 1,133 4.4 -22.6°
Maximum altitude 23:10:47 78° 281° (W) 879 4.2 -22.6°
Drops below altitude 10° 23:16:24 10° 9° (N) 2,467 7.7 -22.6°
Sets 23:18:48 0° 11° (N) 3,391 8.7 -22.7°
